Regional Weather Roundup
Issued by NWS

Home | Current Version | Previous Version | Text Only | Print | Product List | Glossary On
Versions: 1 2 3 4 5 6 7 8 9 10 11 12 13 14 15 16 17 18 19 20 21 22 23 24 25 26 27 28 29 30 31 32 33 34 35 36 37 38 39 40 41 42 43 44 45 46 47 48 49 50
000
ASUS43 KDTX 231510
RWRMI
MICHIGAN HOURLY REGIONAL WEATHER ROUNDUP
NATIONAL WEATHER SERVICE DETROIT/PONTIAC MI
1000 AM EST TUE JAN 23 2018

NOTE: "FAIR" INDICATES FEW OR NO CLOUDS BELOW 12,000 FEET WITH NO
SIGNIFICANT WEATHER AND/OR OBSTRUCTION TO VISIBILITY.

MIZ047>049-052>055-059>063-066>070-074>076-081>083-231600-
SOUTHEAST LOWER MICHIGAN

CITY           SKY/WX    TMP DP  RH WIND       PRES   REMARKS
ADRIAN         CLOUDY    36  33  89 W10G20    29.59R WCI  28
ALMA           CLOUDY    36  34  94 SW13G25   29.49R WCI  27
ANN ARBOR      CLOUDY    36  34  92 SW14      29.56R WCI  27
BAD AXE        FLURRIES  36  34  92 W9G21     29.48R WCI  29
CARO           CLOUDY    37  33  84 SW13G22   29.47S WCI  29
DETROIT CITY   LGT RAIN  37  34  89 SW15      29.55R WCI  28
DETROIT        CLOUDY    37  34  89 SW17      29.57R WCI  27
FLINT          CLOUDY    36  33  89 SW9       29.51S WCI  29
GROSSE ILE     CLOUDY    38  34  85 SW14G22   29.57S WCI  29
HILLSDALE      FLURRIES  34  32  93 SW12G17   29.56S WCI  25
HOWELL         CLOUDY    36  34  94 SW13G18   29.52S WCI  27

CITY           SKY/WX    TMP DP  RH WIND       PRES   REMARKS
JACKSON        CLOUDY    35  33  92 SW18      29.55R WCI  24
LAMBERTVILLE   CLOUDY    38  33  83 SW10G20   29.60S WCI  30
LANSING        CLOUDY    36  32  85 SW16      29.53R WCI  26
LAPEER         DRIZZLE   37  34  90 SW8G18    29.50S WCI  31
MT. CLEMENS    CLOUDY    39  39 100 SW17      29.52F WCI  29
PONTIAC        LGT RAIN  36  34  92 SW13G18   29.51S WCI  27
PORT HOPE        N/A     32  31  96 W9        29.47R WCI  24
PORT HURON     CLOUDY    37  34  87 SW12G17   29.52S WCI  30
TRI CITIES     CLOUDY    37  34  89 SW15G23   29.48R WCI  28
MIDLAND        DRIZZLE   37  33  85 SW9       29.48S WCI  30
TROY           CLOUDY    37  35  90 SW14G20   29.56R WCI  29
SAGINAW HB     PTSUNNY   36  32  87 SW15G22   29.48S WCI  26
$$
MIZ043>046-050>051-056>058-064>065-071>073-077>080-231600-
SOUTHWEST LOWER MICHIGAN

CITY           SKY/WX    TMP DP  RH WIND       PRES   REMARKS
BATTLE CREEK   CLOUDY    33  30  88 W17G24    29.58R WCI  22
BENTON HARBOR  LGT SNOW  32  28  85 NW13G23   29.68R FOG     WCI  22
BIG RAPIDS     LGT SNOW  32  30  94 N16       29.49R VSB 1   WCI  21
COLDWATER      CLOUDY    36  36 100 SW15      29.58R WCI  26
FREMONT        LGT SNOW  29  28  95 NW16G22   29.55R WCI  17
HOLLAND        SNOW      32  29  88 NW18G29   29.61R VSB 1/2 WCI  20
GRAND RAPIDS   CLOUDY    33  29  85 W25       29.53R WCI  20
IONIA          CLOUDY    33  32  94 SW17G23   29.51R WCI  23
KALAMAZOO      LGT SNOW  33  30  88 W14       29.61R FOG     WCI  23
LUDINGTON      LGT SNOW  27  25  91 N15G24    29.60R WCI  15
MARSHALL       CLOUDY    34  33  97 W13G21    29.56R WCI  25
MOUNT PLEASANT LGT SNOW  36  33  91 SW6       29.48R WCI  31
MUSKEGON       LGT SNOW  30  26  85 NW21G29   29.58R VSB 3/4 WCI  17
SOUTH HAVEN    LGT SNOW  32  30  94 NW17G24   29.65R WCI  21
$$
MIZ016>042-231600-
NORTHERN LOWER MICHIGAN

CITY           SKY/WX    TMP DP  RH WIND       PRES   REMARKS
ALPENA         SNOW      23  22  96 N10       29.53R VSB 1/2 WCI  12
BEAVER ISLAND  FLURRIES  19  15  83 N5        29.63R WCI  13
BELLAIRE       CLOUDY    22  21  93 N8        29.60R WCI  13
CADILLAC       LGT SNOW  25  22  91 N14G22    29.51R WCI  13
CHARLEVOIX     LGT SNOW  21  20  94 N3        29.64R
FRANKFORT      CLOUDY    27  24  89 NE6       29.61R FOG     WCI  20
GAYLORD        LGT SNOW  19  18  95 VRB5      29.52R FOG     WCI  12
GRAYLING       SNOW      24  21  86 N10       29.53R VSB 1/2 WCI  14
HARBOR SPRINGS CLOUDY    19  16  87 N3        29.59R
HOUGHTON LAKE  LGT SNOW  27  25  92 N12       29.50R VSB 3/4 WCI  17
MANISTEE       FLURRIES  25  24  96 N15G22    29.61R WCI  13
OSCODA         LGT SNOW  29  28  97 N7        29.49R WCI  22
PELLSTON       CLOUDY    19  15  84 N9        29.60R WCI   8
ROGERS CITY    CLOUDY    21  19  91 N5        29.57R FOG     WCI  15
TRAVERSE CITY  FLURRIES  25  21  85 N17G25    29.59R WCI  12
$$
MIZ007>008-015-231600-
EASTERN UPPER MICHIGAN

CITY           SKY/WX    TMP DP  RH WIND       PRES   REMARKS
KINROSS        FLURRIES  13   8  81 N12       29.61S WCI  -1
MACKINAC ISLAN LGT SNOW  17  14  89 N12G17    29.59S WCI   4
NEWBERRY       LGT SNOW  15  14  93 N20G25    29.64R WCI  -2
S. S. MARIE    PTSUNNY   16   6  65 N9        29.63R WCI   4
MUNISING         N/A     23  21  92 N24       29.73R WCI   7
$$
MIZ004>006-011>014-085-231600-
CENTRAL UPPER MICHIGAN

CITY           SKY/WX    TMP DP  RH WIND       PRES   REMARKS
ESCANABA       FLURRIES  24  20  84 N16G28    29.70R WCI  11
MENOMINEE      LGT SNOW  25  21  85 N13G22    29.73R FOG     WCI  14
SAWYER-GWINN   LGT SNOW  23  21  93 N26       29.72R VSB 3/4 WCI   6
$$
MIZ001>003-009>011-084-231600-
WESTERN UPPER MICHIGAN

CITY           SKY/WX    TMP DP  RH WIND       PRES   REMARKS
IRON MOUNTAIN  CLOUDY    22  17  81 N18G25    29.73R WCI   7
HOUGHTON       CLOUDY    19  13  77 N13G22    29.86R WCI   6
COPPER HARBOR    N/A     21  16  81 NE17G29   29.90R WCI   7
IRONWOOD       LGT SNOW  17  15  92 VRB5      29.91R FOG     WCI  10
$$

ABBREVIATIONS USED IN REMARKS
   TC - TEMPERATURE IN CELSIUS
  WCI - WIND CHILL INDEX
   HX - HEAT INDEX
  VSB - VISIBILITY





USA.gov is the U.S. government's official web portal to all federal, state and local government web resources and services.